Погода в Исфахане

Иран     32°39′38″N   51°40′38″E
темп.,
°C
ветер,
м/с
пор.,
м/с
влажн.,
%
обл.,
%
осадки,
мм/ч
давл.,
гПа
погр.,
м
6 марта, сб
сб600:30+9з57320 0.0 1017252
03:30+7зсз23390 0.0 101786
06:30+6зсз23460 0.0 101999
09:30+9з34320 0.0 1020552
12:30+13юз22180 0.0 1017978
15:30+15ююз12120 0.0 10141243
18:30+14юв22170 0.0 1016102
21:30+11юв01230 0.0 101722
7 марта, вс
вс700:30+9ссз23310 0.0 101765
03:30+8ссз22380 0.0 101644
06:30+6ссв01420 0.0 101622
09:30+11в01280 0.0 1016406
12:30+15ююз23160 0.0 10121077
15:30+17ю23100 0.0 10101161
18:30+15вюв45180 0.0 1011114
21:30+13ююв22230 0.0 101224
8 марта, пн
пн800:30+11зсз34220 0.0 101240
03:30+9з22210 0.0 101124
06:30+7зюз22270 0.0 101332
09:30+13юз23160 0.0 1013434
12:30+17юз5990 0.0 10101803
15:30+19зюз91287 0.0 10083349
18:30+16з69115 0.0 1009718
21:30+13зюз46143 0.0 1012370
9 марта, вт
вт900:30+11зюз46200 0.0 1012269
03:30+9з25260 0.0 1011286
06:30+8ссз23290 0.0 101236
09:30+13зюз510250 0.0 10131902
12:30+17з912150 0.0 10102875
15:30+17з1011110 0.0 10092755
18:30+14з8121555 0.0 1011661
21:30+12з6102527 0.0 1014374
10 марта, ср
ср1000:30+10з58290 0.0 1015236
03:30+8з35330 0.0 1014160
06:30+6зюз23400 0.0 1016121
09:30+11зюз33271 0.0 1016722
12:30+14юз341715 0.0 10131306
15:30+17юз58117 0.0 10103043
18:30+15з341621 0.0 1012417
21:30+13зсз462224 0.0 1014263